| time (UTC) | temp F | wind direction | speed knots | gust knots | rain 1hr in | rain 24hr in | rain mn in | humidity % | barometer mb |
| 20260902184552 | 96 | 153 | 0.0 | 1.7 | 0.00 | 0.00 | 0.00 | 46 | 1018.4 |
| 20260902183048 | 98 | 304 | 0.0 | 2.6 | 0.00 | 0.00 | 0.00 | 49 | 1018.4 |
| 20260902181557 | 97 | 245 | 0.9 | 2.6 | 0.00 | 0.00 | 0.00 | 45 | 1018.6 |
| 20260902180056 | 98 | 92 | 0.0 | 7.8 | 0.00 | 0.00 | 0.00 | 46 | 1018.7 |
| 20260902174604 | 97 | 0 | 0.9 | 3.5 | 0.00 | 0.00 | 0.00 | 48 | 1018.8 |
| 20260902173057 | 96 | 268 | 0.0 | 4.3 | 0.00 | 0.00 | 0.00 | 47 | 1018.9 |
| 20260902171600 | 97 | 103 | 0.0 | 8.7 | 0.00 | 0.00 | 0.00 | 52 | 1019.2 |
| 20260902170054 | 96 | 111 | 0.0 | 3.5 | 0.00 | 0.00 | 0.00 | 49 | 1019.3 |
| 20260902164559 | 94 | 17 | 0.0 | 1.7 | 0.00 | 0.00 | 0.00 | 53 | 1019.5 |
| 20260902163055 | 94 | 223 | 0.9 | 2.6 | 0.00 | 0.00 | 0.00 | 52 | 1019.7 |
| 20260902161605 | 95 | 41 | 0.0 | 3.5 | 0.00 | 0.00 | 0.00 | 52 | 1019.7 |
| 20260902160107 | 94 | 340 | 0.0 | 0.9 | 0.00 | 0.00 | 0.00 | 56 | 1019.8 |
| 20260902154600 | 94 | 238 | 0.0 | 0.9 | 0.00 | 0.00 | 0.00 | 55 | 1019.9 |
| 20260902153050 | 92 | 0 | 0.0 | 1.7 | 0.00 | 0.00 | 0.00 | 60 | 1019.8 |
| 20260902151611 | 92 | 26 | 0.9 | 2.6 | 0.00 | 0.00 | 0.00 | 58 | 1019.8 |
| 20260902150052 | 91 | 157 | 0.0 | 0.9 | 0.00 | 0.00 | 0.00 | 64 | 1019.7 |
| 20260902144555 | 90 | 0 | 0.0 | 0.9 | 0.00 | 0.00 | 0.00 | 66 | 1019.8 |
| 20260902143052 | 89 | 210 | 0.0 | 0.9 | 0.00 | 0.00 | 0.00 | 67 | 1019.8 |
| 20260902141553 | 88 | 0 | 0.0 | 0.9 | 0.00 | 0.00 | 0.00 | 68 | 1019.6 |
| 20260902134602 | 86 | 0 | 0.0 | 0.9 | 0.00 | 0.00 | 0.00 | 72 | 1019.7 |
| 20260902133051 | 86 | 0 | 0.0 | 0.9 | 0.00 | 0.00 | 0.00 | 73 | 1019.8 |
| 20260902131601 | 83 | 0 | 0.0 | 0.0 | 0.00 | 0.00 | 0.00 | 81 | 1019.8 |
| 20260902130056 | 78 | 0 | 0.0 | 0.0 | 0.00 | 0.00 | 0.00 | 90 | 1019.9 |
| 20260902124552 | 75 | 0 | 0.0 | 0.9 | 0.00 | 0.00 | 0.00 | 93 | 1019.8 |
| 20260902123051 | 73 | 0 | 0.0 | 0.0 | 0.00 | 0.00 | 0.00 | 95 | 1019.8 |
| 20260902121601 | 72 | 0 | 0.0 | 0.0 | 0.00 | 0.00 | 0.00 | 94 | 1019.6 |
| 20260902120059 | 71 | 0 | 0.0 | 0.0 | 0.00 | 0.00 | 0.00 | 94 | 1019.5 |
| 20260902114554 | 71 | 0 | 0.0 | 0.0 | 0.00 | 0.00 | 0.00 | 94 | 1019.5 |
| 20260902113052 | 71 | 0 | 0.0 | 0.0 | 0.00 | 0.00 | 0.00 | 94 | 1019.3 |
| 20260902111601 | 71 | 0 | 0.0 | 0.0 | 0.00 | 0.00 | 0.00 | 94 | 1019.3 |
| 20260902110101 | 71 | 0 | 0.0 | 0.0 | 0.00 | 0.00 | 0.00 | 94 | 1019.3 |
| 20260902104615 | 71 | 0 | 0.0 | 0.0 | 0.00 | 0.00 | 0.00 | 93 | 1019.2 |
| 20260902103048 | 71 | 0 | 0.0 | 0.0 | 0.00 | 0.00 | 0.00 | 93 | 1019.1 |
| 20260902101555 | 71 | 0 | 0.0 | 0.0 | 0.00 | 0.00 | 0.00 | 93 | 1019.1 |
| 20260902100109 | 71 | 0 | 0.0 | 0.0 | 0.00 | 0.00 | 0.00 | 93 | 1018.9 |
| 20260902094555 | 71 | 0 | 0.0 | 0.0 | 0.00 | 0.00 | 0.00 | 94 | 1018.9 |
| 20260902093050 | 72 | 0 | 0.0 | 0.0 | 0.00 | 0.00 | 0.00 | 94 | 1018.9 |
| 20260902091552 | 72 | 0 | 0.0 | 0.9 | 0.00 | 0.00 | 0.00 | 94 | 1018.8 |
| 20260902084557 | 72 | 0 | 0.0 | 0.0 | 0.00 | 0.00 | 0.00 | 94 | 1018.7 |
| 20260902083106 | 72 | 0 | 0.0 | 0.0 | 0.00 | 0.00 | 0.00 | 94 | 1018.7 |
| 20260902081612 | 72 | 0 | 0.0 | 0.0 | 0.00 | 0.00 | 0.00 | 94 | 1018.6 |
| 20260902080100 | 72 | 0 | 0.0 | 0.0 | 0.00 | 0.00 | 0.00 | 94 | 1018.5 |
| 20260902074559 | 72 | 0 | 0.0 | 0.0 | 0.00 | 0.00 | 0.00 | 93 | 1018.5 |
| 20260902073050 | 72 | 0 | 0.0 | 0.0 | 0.00 | 0.00 | 0.00 | 94 | 1018.5 |
| 20260902071601 | 72 | 0 | 0.0 | 0.0 | 0.00 | 0.00 | 0.00 | 93 | 1018.5 |
| 20260902070059 | 72 | 0 | 0.0 | 0.0 | 0.00 | 0.00 | 0.00 | 93 | 1018.5 |
| 20260902064558 | 72 | 0 | 0.0 | 0.0 | 0.00 | 0.00 | 0.00 | 93 | 1018.6 |
| 20260902063113 | 72 | 0 | 0.0 | 0.0 | 0.00 | 0.00 | 0.00 | 93 | 1018.6 |
| 20260902061557 | 73 | 0 | 0.0 | 0.0 | 0.00 | 0.00 | 0.00 | 93 | 1018.5 |
| 20260902060126 | 73 | 0 | 0.0 | 0.0 | 0.00 | 0.00 | 0.00 | 93 | 1018.4 |
| 20260902054554 | 73 | 0 | 0.0 | 0.0 | 0.00 | 0.00 | 0.00 | 93 | 1018.3 |
| 20260902053051 | 73 | 0 | 0.0 | 0.0 | 0.00 | 0.00 | 0.00 | 93 | 1018.3 |
| 20260902051607 | 73 | 0 | 0.0 | 0.0 | 0.00 | 0.00 | 0.00 | 93 | 1018.4 |
| 20260902050055 | 73 | 0 | 0.0 | 0.0 | 0.00 | 0.00 | 0.00 | 92 | 1018.2 |
| 20260902044554 | 74 | 0 | 0.0 | 0.0 | 0.00 | 0.00 | 0.00 | 92 | 1018.2 |
| 20260902043101 | 74 | 0 | 0.0 | 0.0 | 0.00 | 0.00 | 0.00 | 92 | 1018.2 |
| 20260902041554 | 74 | 0 | 0.0 | 0.0 | 0.00 | 0.00 | 0.00 | 91 | 1018.3 |
| 20260902040056 | 74 | 0 | 0.0 | 0.0 | 0.00 | 0.00 | 0.00 | 91 | 1018.3 |
| 20260902034553 | 74 | 0 | 0.0 | 0.0 | 0.00 | 0.00 | 0.00 | 91 | 1018.2 |
| 20260902033106 | 75 | 0 | 0.0 | 0.0 | 0.00 | 0.00 | 0.00 | 91 | 1018.3 |
| 20260902031558 | 75 | 0 | 0.0 | 0.0 | 0.00 | 0.00 | 0.00 | 90 | 1018.1 |
| 20260902030056 | 75 | 0 | 0.0 | 0.0 | 0.00 | 0.00 | 0.00 | 90 | 1018.1 |
| 20260902024603 | 75 | 0 | 0.0 | 0.0 | 0.00 | 0.00 | 0.00 | 89 | 1018.1 |
| 20260902023059 | 76 | 0 | 0.0 | 0.0 | 0.00 | 0.00 | 0.00 | 89 | 1018.1 |
| 20260902021555 | 76 | 0 | 0.0 | 0.0 | 0.00 | 0.00 | 0.00 | 89 | 1018.1 |
| 20260902020141 | 76 | 0 | 0.0 | 0.0 | 0.00 | 0.00 | 0.00 | 88 | 1018.0 |
| 20260902014553 | 77 | 0 | 0.0 | 0.0 | 0.00 | 0.00 | 0.00 | 87 | 1017.8 |
| 20260902013056 | 77 | 0 | 0.0 | 0.0 | 0.00 | 0.00 | 0.00 | 87 | 1017.8 |
| 20260902011555 | 77 | 0 | 0.0 | 0.0 | 0.00 | 0.00 | 0.00 | 85 | 1017.6 |
| 20260902010052 | 78 | 0 | 0.0 | 0.0 | 0.00 | 0.00 | 0.00 | 84 | 1017.5 |
| 20260902004549 | 79 | 0 | 0.0 | 0.0 | 0.00 | 0.00 | 0.00 | 83 | 1017.4 |
| 20260902003104 | 80 | 0 | 0.0 | 0.0 | 0.00 | 0.00 | 0.00 | 81 | 1017.3 |
| 20260902001553 | 81 | 0 | 0.0 | 0.0 | 0.00 | 0.00 | 0.00 | 79 | 1017.3 |
| 20260902000055 | 83 | 0 | 0.0 | 0.0 | 0.00 | 0.00 | 0.00 | 77 | 1017.3 |
| 20260901234604 | 84 | 0 | 0.0 | 0.0 | 0.00 | 0.00 | 0.00 | 74 | 1017.4 |
| 20260901233052 | 87 | 0 | 0.0 | 0.0 | 0.00 | 0.00 | 0.00 | 71 | 1017.4 |
| 20260901231558 | 89 | 0 | 0.0 | 0.0 | 0.00 | 0.00 | 0.00 | 67 | 1017.5 |
| 20260901230056 | 91 | 0 | 0.0 | 0.0 | 0.00 | 0.00 | 0.00 | 62 | 1017.7 |
| 20260901224554 | 93 | 0 | 0.0 | 0.0 | 0.00 | 0.00 | 0.00 | 55 | 1017.7 |
| 20260901223101 | 95 | 0 | 0.0 | 1.7 | 0.00 | 0.00 | 0.00 | 48 | 1017.5 |
| 20260901221618 | 97 | 148 | 0.0 | 0.9 | 0.00 | 0.00 | 0.00 | 44 | 1017.6 |
| 20260901220107 | 99 | 0 | 0.0 | 0.9 | 0.00 | 0.00 | 0.00 | 41 | 1017.7 |
| 20260901214546 | 99 | 107 | 0.0 | 0.9 | 0.00 | 0.00 | 0.00 | 40 | 1017.7 |
| 20260901213103 | 98 | 96 | 0.0 | 1.7 | 0.00 | 0.00 | 0.00 | 41 | 1017.6 |
| 20260901211553 | 97 | 68 | 0.0 | 0.9 | 0.00 | 0.00 | 0.00 | 48 | 1017.6 |
| 20260901210052 | 96 | 326 | 0.0 | 1.7 | 0.00 | 0.00 | 0.00 | 47 | 1017.7 |
| 20260901204558 | 96 | 43 | 0.0 | 2.6 | 0.00 | 0.00 | 0.00 | 49 | 1017.7 |
| 20260901203101 | 97 | 0 | 0.0 | 2.6 | 0.00 | 0.00 | 0.00 | 48 | 1017.8 |
| 20260901201551 | 96 | 49 | 0.9 | 2.6 | 0.00 | 0.00 | 0.00 | 44 | 1017.8 |
| 20260901200059 | 96 | 249 | 0.9 | 4.3 | 0.00 | 0.00 | 0.00 | 44 | 1017.8 |
| 20260901194548 | 96 | 0 | 0.9 | 2.6 | 0.00 | 0.00 | 0.00 | 45 | 1018.0 |
| 20260901193108 | 97 | 296 | 0.0 | 2.6 | 0.00 | 0.00 | 0.00 | 47 | 1018.1 |
| 20260901191553 | 97 | 9 | 0.0 | 3.5 | 0.00 | 0.00 | 0.00 | 47 | 1018.3 |
| 20260901190049 | 97 | 20 | 0.0 | 1.7 | 0.00 | 0.00 | 0.00 | 48 | 1018.5 |